Regional Weather Roundup
Issued by NWS

Home | Current Version | Previous Version | Text Only | Print | Product List | Glossary On
Versions: 1 2 3 4 5 6 7 8 9 10 11 12 13 14 15 16 17 18 19 20 21 22 23 24 25 26 27 28 29 30 31 32 33 34 35 36 37 38 39 40 41 42 43 44 45 46 47 48 49 50
000
ASUS43 KLMK 251810
RWRKY
KENTUCKY REGIONAL WEATHER ROUNDUP
NATIONAL WEATHER SERVICE LOUISVILLE KY
200 PM EDT THU MAY 25 2017

NOTE "FAIR" INDICATES FEW OR NO CLOUDS BELOW 12,000 FEET
WITH NO SIGNIFICANT WEATHER AND/OR OBSTRUCTIONS TO VISIBILITY.

KYZ001>023-026-027-061>063-070>075-251900-
WESTERN AND SOUTH CENTRAL KENTUCKY

CITY           SKY/WX    TMP DP  RH WIND       PRES   REMARKS
PADUCAH        MOSUNNY   73  50  44 W8        29.74S
HENDERSON      CLOUDY    69  57  65 W13       29.70S
OWENSBORO      CLOUDY    67  57  70 W16       29.70R
HOPKINSVILLE   PTSUNNY   68  54  59 W18G24    29.74R
BOWLING GREEN  PTSUNNY   70  57  63 W18G26    29.71R
GLASGOW        CLOUDY    64  55  71 W10G20    29.69S
$$

KYZ024-025-028>034-038-045-046-053-251900-
NORTH CENTRAL KENTUCKY

CITY           SKY/WX    TMP DP  RH WIND       PRES   REMARKS
LOUISVILLE/SDF CLOUDY    63  57  81 W14G24    29.61R
LOUISVILLE/LOU CLOUDY    61  58  90 W14       29.61R
FORT KNOX      CLOUDY    60  57  90 W16       29.62R
$$

KYZ035>037-039>044-047>052-055>060-089>105-251900-
NORTHEAST KENTUCKY

CITY           SKY/WX    TMP DP  RH WIND       PRES   REMARKS
LEXINGTON      LGT RAIN  59  56  89 W15G23    29.57R FOG
COVINGTON      LGT RAIN  59  58  96 W18G24    29.51R
FRANKFORT      LGT RAIN  59  55  87 W12G20    29.57R FOG
$$

KYZ054-064>069-076>088-106>120-251900-
SOUTHEAST KENTUCKY

CITY           SKY/WX    TMP DP  RH WIND       PRES   REMARKS
JACKSON        LGT RAIN  56  54  93 VRB3      29.55F FOG
LONDON         RAIN      56  53  90 W15G23    29.63S FOG
SOMERSET       RAIN      55  55 100 W16G26    29.67R
MIDDLESBORO    DRIZZLE   58  54  86 SW8       29.66S
MONTICELLO     LGT RAIN  58  55  90 W22       29.69R
$$





USA.gov is the U.S. government's official web portal to all federal, state and local government web resources and services.